Location: Moscow
(55.7500°N, 37.5830°E)
Time: 07:02:24
(UTC+03:00)

Transit 2A - Pass Details

Date: 09 December 2021
Orbit: 591 x 967 km, 66.7° (Epoch: 17 January)

Event Time Altitude Azimuth Distance (km) Brightness Sun altitude
Exits shadow 05:52:06 27° 332° (NNW) 1,768 7.5 -22.8°
Maximum altitude 05:55:15 47° 29° (NNE) 1,271 7.2 -22.4°
Drops below altitude 10° 06:01:20 10° 103° (ESE) 2,675 10.0 -21.5°
Sets 06:03:58 0° 109° (ESE) 3,588 11.0 -21.2°
